Find Starlink 5289

NORAD ID: 55278 Int'l Des: 2023-010 Owner: SPXS Country: US Constellation: starlink operational
LEOCIRCULAR

リアルタイム位置

3D地球を読み込み中...

Starlink 5289について

説明を読み込み中...

次回通過

Passes for default location (London). Set your location on the main map for personalized predictions.

高度履歴

Loading altitude history...

軌道要素

1 55278U 23010K 26126.81101178 -.00000599 00000-0 -42452-4 0 9993
2 55278 69.9998 257.8378 0003058 268.7534 91.3275 14.98325726181486
Epoch: May 6, 2026 • Age: 22 hours

現在のステータス

高度 579.3 km
速度 7.57 km/s
衛星直下点 -23.21°S, 39.13°W
打ち上げ日 Jan 19, 2023
運用期間 3.2 years
タイプ internet

技術仕様

分類 Payload
質量 305.00 kg
乾燥質量 290.00 kg
総質量 305.00 kg
長さ 0.20 m
直径 2.80 m
スパン 9.00 m
形状 Box + pan
製造者 SPXS
バスタイプ Starlink
フェーズステータス In Orbit
所有者/国 SPXS/US

Most Searched